Location: Homewood
(41.1836°S, 175.9581°E)
Time: 02:53:01
(UTC+00:00)

Nadezhda 2 Rocket - Pass Details

Date: 18 April 2024
Orbit: 948 x 1010 km, 83.0° (Epoch: 22 May)

Event Time Altitude Azimuth Distance (km) Brightness Sun altitude
Rises 16:30:56 0° 190° (S) 3,728 7.5 -26.9°
Reaches altitude 10° 16:33:29 10° 192° (SSW) 2,764 6.8 -26.4°
Maximum altitude 16:39:47 71° 274° (W) 1,033 4.3 -25.3°
Drops below altitude 10° 16:45:54 10° 356° (N) 2,691 6.7 -24.1°
Sets 16:48:22 0° 358° (N) 3,622 7.4 -23.7°
